TimeCST,TemperatureF,Dew PointF,Humidity,Sea Level PressureIn,VisibilityMPH,Wind Direction,Wind SpeedMPH,Gust SpeedMPH,PrecipitationIn,Events,Conditions,WindDirDegrees,DateUTC
12:15 AM,24.8,12.2,59,30.36,10.0,NNE,8.1,-,N/A,,Clear,20,2013-01-15 06:15:00
12:35 AM,24.8,12.2,59,30.36,10.0,North,9.2,-,N/A,,Clear,10,2013-01-15 06:35:00
12:55 AM,24.8,12.2,59,30.36,10.0,North,10.4,-,N/A,,Clear,10,2013-01-15 06:55:00
1:15 AM,24.8,12.2,59,30.35,10.0,NNE,9.2,-,N/A,,Clear,20,2013-01-15 07:15:00
1:35 AM,24.8,12.2,59,30.35,10.0,North,8.1,-,N/A,,Clear,10,2013-01-15 07:35:00
2:15 AM,23.0,12.2,63,30.36,10.0,NNE,9.2,-,N/A,,Clear,20,2013-01-15 08:15:00
2:35 AM,23.0,12.2,63,30.35,10.0,NNE,9.2,-,N/A,,Clear,20,2013-01-15 08:35:00
2:55 AM,23.0,12.2,63,30.35,10.0,NNE,8.1,-,N/A,,Clear,20,2013-01-15 08:55:00
3:15 AM,23.0,12.2,63,30.34,10.0,NNE,8.1,-,N/A,,Clear,20,2013-01-15 09:15:00
3:35 AM,23.0,12.2,63,30.34,10.0,North,9.2,-,N/A,,Clear,10,2013-01-15 09:35:00
3:55 AM,23.0,12.2,63,30.34,10.0,NNE,6.9,-,N/A,,Clear,20,2013-01-15 09:55:00
4:55 AM,23.0,12.2,63,30.32,10.0,NNE,11.5,-,N/A,,Clear,30,2013-01-15 10:55:00
5:15 AM,23.0,12.2,63,30.33,10.0,NNE,9.2,-,N/A,,Clear,20,2013-01-15 11:15:00
5:35 AM,23.0,12.2,63,30.32,10.0,NE,12.7,-,N/A,,Clear,40,2013-01-15 11:35:00
5:55 AM,23.0,12.2,63,30.32,10.0,NE,10.4,-,N/A,,Clear,40,2013-01-15 11:55:00
6:15 AM,23.0,12.2,63,30.33,10.0,NE,10.4,-,N/A,,Clear,40,2013-01-15 12:15:00
6:35 AM,23.0,12.2,63,30.33,10.0,NE,10.4,-,N/A,,Clear,50,2013-01-15 12:35:00
6:55 AM,23.0,12.2,63,30.33,10.0,NE,11.5,16.1,N/A,,Clear,40,2013-01-15 12:55:00
7:15 AM,23.0,12.2,63,30.32,10.0,NE,10.4,-,N/A,,Clear,40,2013-01-15 13:15:00
7:35 AM,23.0,12.2,63,30.33,10.0,NE,11.5,-,N/A,,Clear,40,2013-01-15 13:35:00
7:55 AM,23.0,12.2,63,30.34,10.0,NE,10.4,-,N/A,,Clear,40,2013-01-15 13:55:00
8:15 AM,24.8,12.2,59,30.34,10.0,NNE,9.2,-,N/A,,Clear,30,2013-01-15 14:15:00
8:35 AM,24.8,12.2,59,30.34,10.0,NE,10.4,-,N/A,,Clear,40,2013-01-15 14:35:00
8:55 AM,24.8,12.2,59,30.33,10.0,NE,12.7,-,N/A,,Clear,50,2013-01-15 14:55:00
9:15 AM,24.8,14.0,64,30.33,10.0,NE,13.8,-,N/A,,Clear,40,2013-01-15 15:15:00
9:35 AM,26.6,14.0,59,30.32,10.0,NE,11.5,-,N/A,,Clear,50,2013-01-15 15:35:00
9:55 AM,26.6,15.8,64,30.30,10.0,NE,13.8,-,N/A,,Clear,40,2013-01-15 15:55:00
10:15 AM,28.4,15.8,59,30.29,10.0,ENE,11.5,-,N/A,,Clear,70,2013-01-15 16:15:00
10:35 AM,28.4,17.6,64,30.29,10.0,ENE,11.5,-,N/A,,Clear,70,2013-01-15 16:35:00
10:55 AM,30.2,17.6,60,30.27,10.0,ENE,11.5,-,N/A,,Clear,70,2013-01-15 16:55:00
11:15 AM,30.2,17.6,60,30.26,10.0,ENE,10.4,-,N/A,,Clear,60,2013-01-15 17:15:00
11:55 AM,30.2,15.8,55,30.24,10.0,NE,9.2,-,N/A,,Clear,50,2013-01-15 17:55:00
12:15 PM,30.2,15.8,55,30.14,10.0,NE,15.0,20.7,N/A,,Partly Cloudy,40,2013-01-15 18:15:00
12:35 PM,30.2,17.6,60,30.24,10.0,Calm,Calm,-,N/A,,Mostly Cloudy,0,2013-01-15 18:35:00
12:55 PM,30.2,15.8,55,30.25,10.0,NNE,5.8,-,N/A,,Mostly Cloudy,30,2013-01-15 18:55:00
1:35 PM,30.2,15.8,55,30.24,10.0,NNW,10.4,-,N/A,,Scattered Clouds,330,2013-01-15 19:35:00
1:55 PM,30.2,17.6,60,30.23,10.0,NNW,6.9,-,N/A,,Overcast,340,2013-01-15 19:55:00
2:15 PM,30.2,15.8,55,30.20,10.0,NNE,11.5,-,N/A,,Overcast,20,2013-01-15 20:15:00
2:35 PM,30.2,17.6,60,30.20,10.0,NNE,10.4,-,N/A,,Mostly Cloudy,20,2013-01-15 20:35:00
2:55 PM,30.2,17.6,60,30.19,10.0,NNE,11.5,-,N/A,,Overcast,20,2013-01-15 20:55:00
3:15 PM,30.2,17.6,60,30.23,10.0,North,6.9,-,N/A,,Overcast,10,2013-01-15 21:15:00
3:35 PM,30.2,17.6,60,30.21,10.0,North,6.9,-,N/A,,Overcast,10,2013-01-15 21:35:00
3:55 PM,30.2,17.6,60,30.22,10.0,North,9.2,-,N/A,,Overcast,10,2013-01-15 21:55:00
4:15 PM,30.2,17.6,60,30.20,10.0,NNE,9.2,-,N/A,,Overcast,20,2013-01-15 22:15:00
4:35 PM,30.2,17.6,60,30.19,10.0,NNE,9.2,-,N/A,,Overcast,30,2013-01-15 22:35:00
4:55 PM,30.2,17.6,60,30.17,10.0,NE,10.4,-,N/A,,Overcast,50,2013-01-15 22:55:00
5:36 PM,30.2,17.6,60,30.17,10.0,NNE,5.8,-,N/A,,Overcast,30,2013-01-15 23:36:00
5:55 PM,30.2,17.6,60,30.16,10.0,NNE,6.9,-,N/A,,Overcast,20,2013-01-15 23:55:00
6:15 PM,30.2,17.6,60,30.17,10.0,NNE,8.1,-,N/A,,Overcast,30,2013-01-16 00:15:00
6:35 PM,30.2,19.4,64,30.16,7.0,NNE,10.4,-,N/A,,Overcast,30,2013-01-16 00:35:00
6:55 PM,30.2,19.4,64,30.16,10.0,NNE,8.1,-,N/A,,Overcast,30,2013-01-16 00:55:00
7:15 PM,30.2,19.4,64,30.16,10.0,NNE,5.8,-,N/A,,Overcast,20,2013-01-16 01:15:00
7:35 PM,30.2,17.6,60,30.15,10.0,NNE,6.9,-,N/A,,Overcast,30,2013-01-16 01:35:00
7:55 PM,30.2,19.4,64,30.14,10.0,NNE,6.9,-,N/A,,Overcast,20,2013-01-16 01:55:00
8:15 PM,30.2,17.6,60,30.14,10.0,NNE,5.8,-,N/A,,Overcast,20,2013-01-16 02:15:00
8:35 PM,30.2,19.4,64,30.14,10.0,North,4.6,-,N/A,,Overcast,10,2013-01-16 02:35:00
8:55 PM,30.2,19.4,64,30.14,10.0,North,3.5,-,N/A,,Overcast,10,2013-01-16 02:55:00
9:15 PM,30.2,19.4,64,30.13,10.0,NNW,4.6,-,N/A,,Overcast,340,2013-01-16 03:15:00
9:35 PM,30.2,19.4,64,30.12,10.0,North,4.6,-,N/A,,Overcast,350,2013-01-16 03:35:00
9:55 PM,30.2,19.4,64,30.12,10.0,North,4.6,-,N/A,,Overcast,350,2013-01-16 03:55:00
10:15 PM,30.2,19.4,64,30.12,10.0,North,4.6,-,N/A,,Overcast,350,2013-01-16 04:15:00
10:35 PM,30.2,19.4,64,30.11,10.0,NNW,5.8,-,N/A,,Overcast,330,2013-01-16 04:35:00
10:55 PM,30.2,19.4,64,30.12,10.0,NNW,6.9,-,N/A,,Overcast,330,2013-01-16 04:55:00
11:15 PM,30.2,19.4,64,30.12,10.0,NNW,8.1,-,N/A,,Overcast,340,2013-01-16 05:15:00
11:35 PM,30.2,19.4,64,30.10,10.0,NNW,6.9,-,N/A,,Overcast,340,2013-01-16 05:35:00